TIANMU-1 13

Last updated on Mon Oct 27 2025 00:02:22 GMT+0000 (Coordinated Universal Time)

1 58647U 23205C 25299.53618187 .00007749 00000+0 32547-3 0 9998 2 58647 97.3669 320.0074 0009841 77.1968 283.0368 15.23673908101880
UTC large
Height (km)
Speed (km/s)
/
Latitude / Longitude
Inclination (degrees)
Orbital Period (minutes)
Azimuth
Elevation
Range (km)
Doppler Factor

Next 0 passes for location: London (51.5072 / 0.1276)

Sorry there are no passes over London.